Odessa, TX

10:47 PM CDT on March 23, 2017 (GMT -0500)
Odessa-Schlemeyer

Weather History for KODO - April, 2013

Change the Weather History Date:

Monday, April 29, 2013

  Actual Average (KMAF) Record (KMAF)
Temperature  
Mean Temperature 72 °F -  
Max Temperature 87 °F 81 °F 95 °F (1947)
Min Temperature 57 °F 52 °F 38 °F (1998)
Cooling Degree Days 7    
Growing Degree Days 22 (Base 50)    
Moisture  
Dew Point 43 °F    
Average Humidity 40    
Maximum Humidity 72    
Minimum Humidity 15    
Precipitation  
Precipitation 0.00 in - - ()
Sea Level Pressure  
Sea Level Pressure 29.74 in    
Wind  
Wind Speed 12 mph (South)    
Max Wind Speed 20 mph    
Max Gust Speed 26 mph    
Visibility 10 miles    
Events      
Averages and records for this station are not official NWS values.
T = Trace of Precipitation, MM = Missing Value Source: NWS Daily Summary

Daily Weather History Graph

Daily Weather History Graph

Search for Another Location

Airport or City:

Trip Planner

Search our weather history database for the weather conditions in past years. The results will help you decide how hot, cold, wet, or windy it might be!

Date:

Astronomy

Apr. 29, 2013 Rise Set
Actual Time 7:05 AM CDT 8:28 PM CDT
Civil Twilight 6:39 AM CDT 8:54 PM CDT
Nautical Twilight 6:08 AM CDT 9:25 PM CDT
Astronomical Twilight 5:36 AM CDT 9:57 PM CDT
Moon No Moon Rise 10:34 AM CDT (4/29)
Length of Visible Light 14h 15m
Length of Day
13h 23m
Waning Gibbous, 80% of the Moon is Illuminated
Apr 29
Waning Gibbous
May 2
Last Quarter
May 9
New
May 17
First Quarter
May 24
Full

Hourly Weather History & Observations

Time (CDT) Temp. Dew Point Humidity Pressure Visibility Wind Dir Wind Speed Gust Speed Precip Events Conditions
12:53 AM 64.9 °F 48.0 °F 54% 29.81 in 10.0 mi South 11.5 mph - N/A   Clear
1:53 AM 64.0 °F 48.0 °F 56% 29.81 in 10.0 mi South 10.4 mph - N/A   Clear
2:53 AM 63.0 °F 48.0 °F 58% 29.81 in 10.0 mi South 10.4 mph - N/A   Clear
3:53 AM 61.0 °F 48.9 °F 64% 29.82 in 10.0 mi South 12.7 mph - N/A   Clear
4:53 AM 59.0 °F 48.9 °F 69% 29.81 in 10.0 mi SSW 8.1 mph - N/A   Clear
5:53 AM 57.9 °F 48.0 °F 70% 29.81 in 10.0 mi SSW 8.1 mph - N/A   Clear
6:53 AM 57.9 °F 48.9 °F 72% 29.81 in 10.0 mi South 8.1 mph - N/A   Clear
7:53 AM 59.0 °F 48.9 °F 69% 29.81 in 10.0 mi South 9.2 mph - N/A   Clear
8:53 AM 63.0 °F 48.0 °F 58% 29.83 in 10.0 mi SSW 10.4 mph - N/A   Clear
9:53 AM 70.0 °F 46.0 °F 42% 29.81 in 10.0 mi South 9.2 mph - N/A   Clear
10:53 AM 73.0 °F 46.9 °F 39% 29.80 in 10.0 mi South 11.5 mph - N/A   Clear
11:53 AM 75.9 °F 44.1 °F 32% 29.80 in 10.0 mi South 10.4 mph - N/A   Clear
12:53 PM 79.0 °F 45.0 °F 30% 29.78 in 10.0 mi South 12.7 mph - N/A   Clear
1:53 PM 82.0 °F 41.0 °F 23% 29.75 in 10.0 mi South 13.8 mph 17.3 mph N/A   Clear
2:53 PM 86.0 °F 34.0 °F 16% 29.71 in 10.0 mi SE 11.5 mph 21.9 mph N/A   Clear
3:53 PM 86.0 °F 33.1 °F 15% 29.68 in 10.0 mi SE 16.1 mph 23.0 mph N/A   Clear
4:53 PM 87.1 °F 34.0 °F 15% 29.66 in 10.0 mi South 13.8 mph 19.6 mph N/A   Clear
5:53 PM 87.1 °F 33.1 °F 15% 29.65 in 10.0 mi South 11.5 mph 16.1 mph N/A   Clear
6:53 PM 84.9 °F 34.0 °F 16% 29.64 in 10.0 mi SSE 12.7 mph - N/A   Clear
7:53 PM 82.9 °F 37.0 °F 19% 29.64 in 10.0 mi SE 15.0 mph - N/A   Clear
8:53 PM 80.1 °F 39.0 °F 23% 29.63 in 10.0 mi SSE 15.0 mph - N/A   Clear
9:53 PM 77.0 °F 44.1 °F 31% 29.65 in 10.0 mi SSE 16.1 mph - N/A   Clear
10:53 PM 73.9 °F 46.0 °F 37% 29.66 in 10.0 mi South 17.3 mph 23.0 mph N/A   Clear
11:53 PM 72.0 °F 46.9 °F 41% 29.66 in 10.0 mi SSE 19.6 mph 26.5 mph N/A   Clear